Tracking 19854 objects as of 21-Sep-2019
HD Live streaming from Space Station
objects crossing your sky now

NATO 3A

Track NATO 3A now!
NATO 3A is classified as:


NORAD ID: 8808
Int'l Code: 1976-035A
Perigee: 35,815.6 km
Apogee: 36,015.7 km
Inclination: 10.4 °
Period: 1,442.3 minutes
Semi major axis: 42286 km
RCS: 7.2313 m2 (large)
Launch date: April 22, 1976
Source: North Atlantic Treaty Organization (NATO)
Launch site: AIR FORCE EASTERN TEST RANGE (AFETR)
aabbcc
Your satellite tracking list
Your tracking list is empty




NASA's NSSDC Master Catalog

Two Line Element Set (TLE):
1  8808U 76035A   19263.27596664 -.00000175 +00000-0 +00000-0 0  9995
2  8808 010.3752 317.9079 0023666 265.1532 153.1288 00.99838566722695
Source of the keplerian elements: AFSPC